Findlay, OH

7:58 AM EST on December 16, 2019 (GMT -0500)
Findlay

Weather History for KFDY - October, 2019

Change the Weather History Date:

Sunday, October 20, 2019

  Actual Average Record
Temperature  
Mean Temperature 60 °F -  
Max Temperature 73 °F 57 °F 85 °F (1953)
Min Temperature 46 °F 39 °F 23 °F (1952)
Degree Days  
Heating Degree Days 6    
Growing Degree Days 10 (Base 50)    
Moisture  
Dew Point 45 °F    
Average Humidity 62    
Maximum Humidity 83    
Minimum Humidity 37    
Precipitation  
Precipitation 0.00 in - - ()
Sea Level Pressure  
Sea Level Pressure 29.86 in    
Wind  
Wind Speed 5 mph (East)    
Max Wind Speed 8 mph    
Max Gust Speed -    
Visibility 10 miles    
Events      
Averages and records for this station are not official NWS values.
T = Trace of Precipitation, MM = Missing Value Source: NWS Daily Summary

Daily Weather History Graph

Daily Weather History Graph

Search for Another Location

Airport or City:

Astronomy

Oct. 20, 2019 Rise Set
Actual Time 7:51 AM EDT 6:46 PM EDT
Civil Twilight 7:23 AM EDT 7:14 PM EDT
Nautical Twilight 6:51 AM EDT 7:46 PM EDT
Astronomical Twilight 6:19 AM EDT 8:18 PM EDT
Moon 11:52 PM EDT (10/20) 2:20 PM EDT (10/20)
Length of Visible Light 11h 51m
Length of Day
10h 55m
Waning Gibbous, 59% of the Moon is Illuminated
Oct 20
Waning Gibbous
Oct 21
Last Quarter
Oct 27
New
Nov 4
First Quarter
Nov 12
Full

Hourly Weather History & Observations

Time (EDT) Temp. Dew Point Humidity Pressure Visibility Wind Dir Wind Speed Gust Speed Precip Events Conditions
12:53 AM 53.1 °F 41.0 °F 64% 29.81 in 10.0 mi SE 6.9 mph - N/A   Clear
1:53 AM 53.1 °F 42.1 °F 66% 29.80 in 10.0 mi SSE 5.8 mph - N/A   Partly Cloudy
2:53 AM 53.1 °F 43.0 °F 69% 29.78 in 10.0 mi SE 5.8 mph - N/A   Mostly Cloudy
3:53 AM 50.0 °F 42.1 °F 74% 29.78 in 10.0 mi SE 5.8 mph - N/A   Clear
4:53 AM 50.0 °F 43.0 °F 77% 29.78 in 10.0 mi SE 4.6 mph - N/A   Clear
5:53 AM 48.0 °F 42.1 °F 80% 29.80 in 10.0 mi SE 4.6 mph - N/A   Clear
6:53 AM 46.9 °F 42.1 °F 83% 29.81 in 10.0 mi SSE 5.8 mph - N/A   Clear
7:53 AM 46.9 °F 42.1 °F 83% 29.83 in 10.0 mi Calm Calm - N/A   Clear
8:53 AM 50.0 °F 45.0 °F 83% 29.84 in 10.0 mi South 3.5 mph - N/A   Mostly Cloudy
9:53 AM 54.0 °F 46.9 °F 77% 29.87 in 10.0 mi SW 3.5 mph - N/A   Overcast
10:53 AM 61.0 °F 48.0 °F 62% 29.87 in 10.0 mi WSW 5.8 mph - N/A   Partly Cloudy
11:53 AM 64.0 °F 46.9 °F 54% 29.88 in 10.0 mi Calm Calm - N/A   Mostly Cloudy
12:53 PM 69.1 °F 46.9 °F 45% 29.88 in 10.0 mi NNW 6.9 mph - N/A   Overcast
1:53 PM 70.0 °F 46.9 °F 44% 29.88 in 10.0 mi NW 5.8 mph - N/A   Clear
2:53 PM 72.0 °F 45.0 °F 38% 29.87 in 10.0 mi North 6.9 mph - N/A   Scattered Clouds
3:53 PM 73.0 °F 45.0 °F 37% 29.86 in 10.0 mi North - - N/A   Clear
4:53 PM 73.0 °F 45.0 °F 37% 29.87 in 10.0 mi North 4.6 mph - N/A   Clear
5:53 PM 70.0 °F 46.9 °F 44% 29.88 in 10.0 mi North 3.5 mph - N/A   Scattered Clouds
6:53 PM 68.0 °F 46.0 °F 45% 29.89 in 10.0 mi North 3.5 mph - N/A   Scattered Clouds
7:53 PM 63.0 °F 48.0 °F 58% 29.91 in 10.0 mi NE 4.6 mph - N/A   Overcast
8:53 PM 62.1 °F 46.9 °F 58% 29.93 in 10.0 mi ENE 5.8 mph - N/A   Clear
9:53 PM 57.9 °F 46.9 °F 67% 29.94 in 10.0 mi East 8.1 mph - N/A   Partly Cloudy
10:53 PM 57.0 °F 46.9 °F 69% 29.94 in 10.0 mi East 3.5 mph - N/A   Clear
11:53 PM 54.0 °F 46.0 °F 75% 29.94 in 10.0 mi ESE 4.6 mph - N/A   Partly Cloudy